DW1188 Weather Reports


Display with metric or nautical units.
time (UTC)temp
F
wind
direction
speed
MPH
gust
MPH
rain 1hr
in
rain 24hr
in
rain mn
in
humidity
%
barometer
mb
20260903170855 56 223 0.0 0.0 0.00 0.23 0.08 75 1013.0
20260903165703 56 208 0.0 1.0 0.00 0.23 0.08 73 1013.0
20260903163105 55 196 0.0 11.0 0.00 0.23 0.08 79 1012.9
20260903161858 54 189 0.0 4.0 0.00 0.23 0.08 80 1013.0
20260903160626 54 163 2.0 10.0 0.00 0.23 0.08 83 1012.9
20260903154157 53 167 0.0 7.0 0.00 0.23 0.08 84 1012.9
20260903152951 53 169 1.0 0.0 0.00 0.23 0.08 86 1012.8
20260903145157 53 144 0.0 0.0 0.00 0.23 0.08 88 1012.6
20260903143947 53 208 0.0 0.0 0.00 0.23 0.08 89 1012.4
20260903142747 52 173 0.0 0.0 0.00 0.23 0.08 89 1012.3
20260903141543 52 157 0.0 0.0 0.00 0.23 0.08 89 1012.4
20260903140311 52 167 0.0 0.0 0.00 0.23 0.08 90 1012.3
20260903135100 52 168 0.0 0.0 0.00 0.23 0.08 90 1012.1
20260903133848 52 157 0.0 0.0 0.00 0.23 0.08 90 1012.0
20260903132654 52 168 0.0 0.0 0.00 0.23 0.08 90 1011.7
20260903130118 52 170 0.0 0.0 0.00 0.21 0.06 90 1011.3
20260903124922 53 143 0.0 0.0 0.00 0.20 0.06 90 1011.2
20260903123724 53 134 0.0 0.0 0.00 0.20 0.06 90 1011.2
20260903122452 53 163 0.0 0.0 0.00 0.20 0.06 90 1011.1
20260903121301 53 165 0.0 0.0 0.00 0.19 0.05 90 1011.1
20260903120058 53 169 0.0 0.0 0.00 0.19 0.05 90 1011.0
20260903114915 53 171 0.0 0.0 0.00 0.18 0.04 90 1010.9
20260903113701 53 171 0.0 0.0 0.00 0.18 0.04 90 1010.8
20260903112501 53 171 0.0 0.0 0.00 0.18 0.04 89 1010.7
20260903105947 54 171 0.0 0.0 0.00 0.16 0.02 89 1010.7
20260903103320 54 181 0.0 0.0 0.00 0.16 0.02 89 1010.6
20260903102041 54 171 0.0 0.0 0.00 0.16 0.02 89 1010.5
20260903100837 54 171 0.0 0.0 0.00 0.16 0.02 90 1010.4
20260903095622 54 181 0.0 0.0 0.00 0.16 0.02 89 1010.3
20260903094355 54 181 0.0 0.0 0.00 0.16 0.02 89 1010.3
20260903093150 54 181 0.0 0.0 0.06 0.16 0.02 88 1010.3
20260903091924 54 178 0.0 0.0 0.00 0.15 0.01 87 1010.2
20260903090729 55 180 0.0 0.0 0.00 0.14 0.00 86 1010.1
20260903085512 55 196 0.0 5.0 0.00 0.14 0.00 83 1010.2
20260903084339 56 159 0.0 0.0 0.00 0.14 0.00 82 1010.1
20260903083100 56 167 0.0 0.0 0.00 0.14 0.00 81 1010.0
20260903081849 56 182 0.0 0.0 0.00 0.14 0.00 81 1010.1
20260903080708 56 186 0.0 0.0 0.00 0.14 0.00 81 1010.2
20260903075437 56 185 0.0 0.0 0.00 0.14 0.00 80 1010.3
20260903074248 56 186 0.0 0.0 0.00 0.14 0.00 79 1010.2
20260903073019 56 163 0.0 0.0 0.00 0.14 0.00 79 1010.3
20260903071844 56 151 0.0 0.0 0.00 0.14 0.00 79 1010.3
20260903070706 56 159 0.0 0.0 0.00 0.14 0.00 79 1010.3
20260903065436 56 145 0.0 0.0 0.00 0.14 0.15 79 1010.3
20260903064227 56 144 0.0 0.0 0.00 0.14 0.15 78 1010.4
20260903063034 57 150 0.0 0.0 0.00 0.14 0.15 79 1010.3
20260903060521 57 161 0.0 0.0 0.00 0.14 0.15 80 1010.6
20260903055256 57 173 0.0 0.0 0.00 0.14 0.15 79 1010.5
20260903054044 57 173 0.0 0.0 0.00 0.14 0.15 79 1010.6
20260903050221 57 255 0.0 0.0 0.00 0.14 0.15 79 1010.5
20260903045051 57 199 0.0 3.0 0.00 0.14 0.15 85 1010.6
20260903043922 56 182 0.0 0.0 0.00 0.14 0.15 88 1010.3
20260903042737 57 123 0.0 0.0 0.00 0.14 0.15 88 1010.2
20260903041514 57 153 0.0 0.0 0.00 0.14 0.15 87 1010.2
20260903040238 56 294 0.0 0.0 0.00 0.14 0.15 86 1009.8
20260903035028 56 306 0.0 0.0 0.00 0.14 0.15 88 1009.5
20260903032443 56 265 6.0 18.0 0.31 0.12 0.13 87 1009.3
20260903024559 65 137 0.0 0.0 0.00 0.06 0.06 59 1007.5
20260903023354 65 148 0.0 5.0 0.00 0.06 0.06 59 1007.6
20260903022130 65 134 0.0 0.0 0.00 0.06 0.06 58 1007.7
20260903015709 66 100 0.0 0.0 0.00 0.06 0.06 56 1007.6
20260903013108 67 102 0.0 0.0 0.00 0.06 0.06 54 1007.8
20260903011904 66 105 0.0 0.0 0.00 0.06 0.06 55 1007.9
20260903005330 67 107 0.0 0.0 0.00 0.06 0.06 55 1008.0
20260903004057 67 130 0.0 0.0 0.00 0.06 0.06 53 1008.2
20260903001636 66 134 0.0 0.0 0.00 0.06 0.06 54 1008.3
20260902235126 67 129 0.0 0.0 0.00 0.06 0.06 54 1008.6
20260902233934 66 143 0.0 0.0 0.00 0.06 0.06 55 1008.6
20260902232732 66 70 0.0 1.0 0.00 0.06 0.06 56 1008.6
20260902231603 66 88 0.0 0.0 0.00 0.06 0.06 56 1008.7
20260902230323 66 146 0.0 0.0 0.00 0.06 0.06 58 1009.0
20260902225119 65 144 0.0 0.0 0.00 0.06 0.06 59 1009.2
20260902223840 65 104 0.0 0.0 0.00 0.06 0.06 60 1009.2
20260902222610 64 94 0.0 0.0 0.00 0.06 0.06 61 1009.2
20260902221349 64 75 0.0 0.0 0.00 0.06 0.06 62 1009.3
20260902220132 63 139 0.0 12.0 0.00 0.06 0.06 63 1009.4
20260902214953 63 144 0.0 1.0 0.00 0.06 0.06 65 1009.5
20260902213751 62 140 0.0 7.0 0.00 0.06 0.06 66 1009.7
20260902212524 62 89 0.0 0.0 0.00 0.06 0.06 67 1009.8
20260902211302 62 130 0.0 0.0 0.00 0.06 0.06 69 1009.9
20260902204717 60 65 0.0 0.0 0.00 0.06 0.06 77 1010.2
20260902203445 59 162 0.0 7.0 0.00 0.06 0.06 78 1010.2
20260902200937 57 121 0.0 3.0 0.00 0.06 0.06 80 1010.5
20260902195742 56 111 0.0 5.0 0.00 0.06 0.06 85 1010.5
20260902193237 55 124 0.0 5.0 0.00 0.06 0.06 87 1011.0
20260902192002 54 138 0.0 0.0 0.04 0.06 0.06 87 1011.1
20260902190807 54 134 0.0 0.0 0.06 0.06 0.06 87 1011.0
20260902185632 54 128 0.0 5.0 0.12 0.04 0.05 85 1011.1
20260902184438 55 163 0.0 4.0 0.09 0.03 0.03 83 1011.2
20260902183230 56 172 0.0 3.0 0.00 0.01 0.01 80 1010.9
20260902182023 56 171 0.0 0.0 0.00 0.00 0.01 77 1010.7
20260902180814 57 148 2.0 16.0 0.00 0.00 0.00 75 1010.6
20260902174311 58 173 0.0 6.0 0.00 0.00 0.00 70 1010.5
20260902173039 58 167 0.0 6.0 0.00 0.00 0.00 70 1010.3
20260902171901 58 169 0.0 4.0 0.00 0.00 0.00 69 1010.2